KR0L-13 Weather Reports


time (UTC)temp
C
wind
direction
speed
KPH
gust
KPH
rain 1hr
cm
rain 24hr
cm
rain mn
cm
humidity
%
barometer
mb
20260906192521 38 90 1.6 14.5 0.00 0.00 0.00 31 1014.1
20260906191521 38 64 0.0 0.0 0.00 0.00 0.00 30 1014.3
20260906190521 38 90 0.0 11.3 0.00 0.00 0.00 31 1014.6
20260906185521 38 113 0.0 1.6 0.00 0.00 0.00 32 1014.8
20260906184523 37 113 0.0 1.6 0.00 0.00 0.00 32 1014.9
20260906183521 38 68 0.0 16.1 0.00 0.00 0.00 33 1015.2
20260906182521 37 180 0.0 1.6 0.00 0.00 0.00 34 1015.3
20260906181521 37 180 0.0 8.0 0.00 0.00 0.00 33 1015.7
20260906180521 37 158 0.0 3.2 0.00 0.00 0.00 34 1015.7
20260906175521 37 90 0.0 1.6 0.00 0.00 0.00 34 1015.9
20260906174521 37 158 0.0 0.0 0.00 0.00 0.00 34 1016.2
20260906173521 37 148 0.0 0.0 0.00 0.00 0.00 35 1016.3
20260906172521 37 158 0.0 9.7 0.00 0.00 0.00 35 1016.4
20260906171521 36 213 0.0 0.0 0.00 0.00 0.00 37 1016.7
20260906170521 36 158 0.0 6.4 0.00 0.00 0.00 36 1016.7
20260906165521 36 203 0.0 1.6 0.00 0.00 0.00 36 1016.9
20260906164521 36 135 0.0 1.6 0.00 0.00 0.00 37 1016.9
20260906163522 35 158 0.0 0.0 0.00 0.00 0.00 38 1017.0
20260906162521 36 204 0.0 0.0 0.00 0.00 0.00 38 1017.1
20260906161521 35 180 0.0 0.0 0.00 0.00 0.00 39 1016.9
20260906160521 35 187 0.0 0.0 0.00 0.00 0.00 40 1017.0
20260906155521 35 148 0.0 0.0 0.00 0.00 0.00 40 1017.0
20260906154521 35 166 0.0 0.0 0.00 0.00 0.00 41 1017.0
20260906153521 34 180 0.0 4.8 0.00 0.00 0.00 41 1016.7
20260906152521 33 172 0.0 0.0 0.00 0.00 0.00 43 1016.7
20260906151521 33 180 0.0 1.6 0.00 0.00 0.00 44 1016.5
20260906150521 32 209 0.0 0.0 0.00 0.00 0.00 45 1016.7
20260906145521 32 184 0.0 0.0 0.00 0.00 0.00 48 1016.6
20260906144521 31 169 0.0 0.0 0.00 0.00 0.00 50 1016.5
20260906143521 31 153 0.0 0.0 0.00 0.00 0.00 50 1016.5
20260906142521 31 154 0.0 0.0 0.00 0.00 0.00 50 1016.5
20260906141520 31 153 0.0 0.0 0.00 0.00 0.00 51 1016.5
20260906140521 31 145 0.0 0.0 0.00 0.00 0.00 52 1016.6
20260906135521 30 131 0.0 0.0 0.00 0.00 0.00 55 1016.4
20260906134521 29 135 0.0 1.6 0.00 0.00 0.00 57 1016.3
20260906133521 28 134 0.0 0.0 0.00 0.00 0.00 59 1016.3
20260906132520 27 65 0.0 0.0 0.00 0.00 0.00 62 1016.2
20260906131521 26 65 0.0 0.0 0.00 0.00 0.00 64 1016.0
20260906130521 26 65 0.0 0.0 0.00 0.00 0.00 67 1016.0
20260906125521 25 28 0.0 0.0 0.00 0.00 0.00 69 1015.7
20260906124520 24 28 0.0 0.0 0.00 0.00 0.00 72 1015.4
20260906123520 23 145 0.0 0.0 0.00 0.00 0.00 77 1015.4
20260906122520 22 151 0.0 0.0 0.00 0.00 0.00 78 1015.3
20260906121520 22 150 0.0 0.0 0.00 0.00 0.00 77 1015.0
20260906120520 22 150 0.0 0.0 0.00 0.00 0.00 76 1014.9
20260906115520 22 150 0.0 0.0 0.00 0.00 0.00 75 1014.6
20260906114520 23 151 0.0 0.0 0.00 0.00 0.00 75 1014.6
20260906113520 23 151 0.0 0.0 0.00 0.00 0.00 73 1014.6
20260906112520 23 151 0.0 0.0 0.00 0.00 0.00 72 1014.6
20260906111520 23 151 0.0 0.0 0.00 0.00 0.00 70 1014.6
20260906110520 23 151 0.0 0.0 0.00 0.00 0.00 71 1014.6
20260906105520 23 150 0.0 0.0 0.00 0.00 0.00 72 1014.5
20260906104520 23 150 0.0 0.0 0.00 0.00 0.00 72 1014.5
20260906103520 23 150 0.0 0.0 0.00 0.00 0.00 73 1014.7
20260906102520 23 150 0.0 0.0 0.00 0.00 0.00 75 1014.6
20260906101520 22 150 0.0 0.0 0.00 0.00 0.00 74 1014.7
20260906100520 23 150 0.0 0.0 0.00 0.00 0.00 72 1014.6
20260906095520 23 150 0.0 0.0 0.00 0.00 0.00 69 1014.7
20260906094520 24 150 0.0 0.0 0.00 0.00 0.00 69 1014.7
20260906093520 24 150 0.0 0.0 0.00 0.00 0.00 68 1014.6
20260906092520 24 150 0.0 0.0 0.00 0.00 0.00 68 1014.5
20260906091520 25 150 0.0 0.0 0.00 0.00 0.00 67 1014.5
20260906090520 25 150 0.0 0.0 0.00 0.00 0.00 68 1014.4
20260906085520 25 134 0.0 0.0 0.00 0.00 0.00 68 1014.5
20260906084520 24 134 0.0 0.0 0.00 0.00 0.00 68 1014.4
20260906083520 24 134 0.0 0.0 0.00 0.00 0.00 68 1014.4
20260906082520 25 134 0.0 0.0 0.00 0.00 0.00 68 1014.5
20260906081520 25 132 0.0 0.0 0.00 0.00 0.00 68 1014.5
20260906080520 25 135 0.0 0.0 0.00 0.00 0.00 67 1014.5
20260906075520 25 135 0.0 0.0 0.00 0.00 0.00 67 1014.4
20260906074522 25 135 0.0 0.0 0.00 0.00 0.00 66 1014.5
20260906073522 25 135 0.0 0.0 0.00 0.00 0.00 65 1014.4
20260906072522 25 135 0.0 0.0 0.00 0.00 0.00 65 1014.4
20260906071522 25 135 0.0 0.0 0.00 0.00 0.00 64 1014.4
20260906070522 25 135 0.0 0.0 0.00 0.00 0.00 64 1014.3
20260906065522 25 135 0.0 0.0 0.00 0.00 0.00 64 1014.3
20260906064522 26 135 0.0 0.0 0.00 0.00 0.00 63 1014.2
20260906063522 26 135 0.0 0.0 0.00 0.00 0.00 63 1014.2
20260906062522 26 144 0.0 0.0 0.00 0.00 0.00 63 1014.2
20260906061522 26 144 0.0 0.0 0.00 0.00 0.00 63 1014.2
20260906060522 26 156 0.0 0.0 0.00 0.00 0.00 61 1014.5
20260906055522 26 108 0.0 0.0 0.00 0.00 0.00 61 1014.4
20260906054522 27 68 0.0 0.0 0.00 0.00 0.00 61 1014.5
20260906053522 27 68 0.0 0.0 0.00 0.00 0.00 61 1014.4
20260906052522 26 68 0.0 0.0 0.00 0.00 0.00 61 1014.3
20260906051522 26 68 0.0 0.0 0.00 0.00 0.00 62 1014.3
20260906050522 26 76 0.0 0.0 0.00 0.00 0.00 61 1014.2
20260906045522 26 90 0.0 0.0 0.00 0.00 0.00 61 1014.3
20260906044522 26 132 0.0 0.0 0.00 0.00 0.00 61 1014.3
20260906043522 26 148 0.0 0.0 0.00 0.00 0.00 61 1014.2
20260906042522 26 148 0.0 0.0 0.00 0.00 0.00 61 1014.2
20260906041522 27 148 0.0 0.0 0.00 0.00 0.00 60 1014.3
20260906040522 27 148 0.0 0.0 0.00 0.00 0.00 59 1014.2
20260906035521 27 148 0.0 0.0 0.00 0.00 0.00 57 1014.1
20260906034521 27 148 0.0 0.0 0.00 0.00 0.00 57 1014.0
20260906033521 28 148 0.0 0.0 0.00 0.00 0.00 56 1013.8
20260906032521 28 150 0.0 0.0 0.00 0.00 0.00 55 1013.6
20260906031521 28 150 0.0 0.0 0.00 0.00 0.00 55 1013.5
20260906030521 28 150 0.0 0.0 0.00 0.00 0.00 55 1013.4
20260906025521 28 150 0.0 0.0 0.00 0.00 0.00 54 1013.1
20260906024520 28 150 0.0 0.0 0.00 0.00 0.00 53 1013.1
20260906023520 29 150 0.0 0.0 0.00 0.00 0.00 53 1013.0
20260906022521 29 150 0.0 0.0 0.00 0.00 0.00 52 1012.9
20260906021520 29 150 0.0 0.0 0.00 0.00 0.00 51 1012.7
20260906020521 30 150 0.0 0.0 0.00 0.00 0.00 50 1012.4
20260906015520 30 150 0.0 0.0 0.00 0.00 0.00 49 1012.2
20260906014520 30 150 0.0 0.0 0.00 0.00 0.00 48 1012.3
20260906013521 30 150 0.0 0.0 0.00 0.00 0.00 48 1012.1
20260906012520 31 150 0.0 0.0 0.00 0.00 0.00 46 1012.0
20260906011520 31 150 0.0 0.0 0.00 0.00 0.00 45 1012.0
20260906010520 31 153 0.0 0.0 0.00 0.00 0.00 44 1012.0
20260906005520 32 135 0.0 3.2 0.00 0.00 0.00 43 1012.0
20260906004520 32 137 0.0 0.0 0.00 0.00 0.00 42 1012.0
20260906003520 33 136 0.0 0.0 0.00 0.00 0.00 41 1011.9
20260906002520 33 138 0.0 0.0 0.00 0.00 0.00 39 1011.9
20260906001520 34 137 0.0 0.0 0.00 0.00 0.00 38 1012.1
20260906000520 35 121 0.0 0.0 0.00 0.00 0.00 37 1012.1
20260905235520 35 129 0.0 0.0 0.00 0.00 0.00 36 1012.1
20260905234520 35 129 0.0 0.0 0.00 0.00 0.00 35 1012.1
20260905233520 36 119 0.0 0.0 0.00 0.00 0.00 35 1012.2
20260905232520 36 126 0.0 0.0 0.00 0.00 0.00 34 1012.2
20260905231520 36 135 0.0 1.6 0.00 0.00 0.00 35 1012.2
20260905230520 36 63 0.0 0.0 0.00 0.00 0.00 34 1012.1
20260905225520 37 68 0.0 9.7 0.00 0.00 0.00 33 1012.3
20260905224520 37 96 0.0 0.0 0.00 0.00 0.00 32 1012.3
20260905223520 37 71 0.0 0.0 0.00 0.00 0.00 32 1012.4
20260905222520 37 45 0.0 3.2 0.00 0.00 0.00 31 1012.2
20260905221520 38 45 0.0 8.0 0.00 0.00 0.00 30 1012.2
20260905220520 38 90 0.0 6.4 0.00 0.00 0.00 31 1012.3
20260905215520 38 113 0.0 4.8 0.00 0.00 0.00 30 1012.2
20260905214520 38 90 0.0 1.6 0.00 0.00 0.00 32 1012.2
20260905213520 38 68 0.0 4.8 0.00 0.00 0.00 31 1012.3
20260905212520 38 90 0.0 14.5 0.00 0.00 0.00 31 1012.4
20260905211520 38 90 0.0 9.7 0.00 0.00 0.00 32 1012.3
20260905210520 38 45 0.0 9.7 0.00 0.00 0.00 34 1012.3
20260905205522 38 23 3.2 14.5 0.00 0.00 0.00 34 1012.4
20260905204522 38 90 0.0 8.0 0.00 0.00 0.00 34 1012.7
20260905203522 38 90 0.0 11.3 0.00 0.00 0.00 33 1012.8
20260905202522 37 68 1.6 9.7 0.00 0.00 0.00 33 1012.9
20260905201522 37 45 0.0 6.4 0.00 0.00 0.00 33 1013.1
20260905200522 38 68 0.0 9.7 0.00 0.00 0.00 34 1013.3
20260905195522 37 68 0.0 6.4 0.00 0.00 0.00 36 1013.6
20260905194522 38 68 3.2 16.1 0.00 0.00 0.00 35 1013.7
20260905193522 38 110 0.0 0.0 0.00 0.00 0.00 35 1013.7